TimeCDT,TemperatureF,Dew PointF,Humidity,Sea Level PressureIn,VisibilityMPH,Wind Direction,Wind SpeedMPH,Gust SpeedMPH,PrecipitationIn,Events,Conditions,WindDirDegrees,DateUTC
12:15 AM,55.2,52.9,92,29.89,10.0,SSE,5.8,-,N/A,,Scattered Clouds,150,2013-06-17 05:15:00
12:35 AM,55.8,52.9,90,29.88,10.0,South,3.5,-,N/A,,Clear,180,2013-06-17 05:35:00
12:55 AM,54.9,52.2,91,29.92,10.0,North,11.5,-,N/A,,Scattered Clouds,360,2013-06-17 05:55:00
1:15 AM,54.5,52.7,94,29.92,10.0,Calm,Calm,-,N/A,,Scattered Clouds,0,2013-06-17 06:15:00
1:35 AM,53.6,52.5,96,29.92,10.0,Calm,Calm,-,N/A,,Clear,0,2013-06-17 06:35:00
1:55 AM,52.3,51.1,95,29.92,10.0,Calm,Calm,-,N/A,,Clear,0,2013-06-17 06:55:00
2:15 AM,52.2,51.6,98,29.91,10.0,Calm,Calm,-,N/A,,Clear,0,2013-06-17 07:15:00
2:35 AM,52.0,51.4,98,29.91,10.0,Calm,Calm,-,N/A,,Clear,0,2013-06-17 07:35:00
2:55 AM,52.9,52.2,97,29.89,10.0,South,3.5,-,N/A,,Clear,190,2013-06-17 07:55:00
3:15 AM,53.6,51.8,94,29.88,10.0,Calm,Calm,-,N/A,,Clear,0,2013-06-17 08:15:00
3:35 AM,53.6,51.6,93,29.88,10.0,Calm,Calm,-,N/A,,Clear,0,2013-06-17 08:35:00
3:55 AM,52.3,49.8,91,29.88,10.0,Calm,Calm,-,N/A,,Scattered Clouds,0,2013-06-17 08:55:00
4:15 AM,48.7,48.6,99,29.88,10.0,NE,4.6,-,N/A,,Scattered Clouds,40,2013-06-17 09:15:00
4:35 AM,49.8,49.5,99,29.88,10.0,NE,3.5,-,N/A,,Clear,50,2013-06-17 09:35:00
4:55 AM,49.8,49.5,99,29.88,10.0,Calm,Calm,-,N/A,,Scattered Clouds,0,2013-06-17 09:55:00
5:15 AM,49.6,49.3,99,29.90,10.0,NNE,4.6,-,N/A,,Scattered Clouds,30,2013-06-17 10:15:00
5:35 AM,51.4,50.9,98,29.87,7.0,SSW,6.9,17.3,N/A,Rain,Light Rain,200,2013-06-17 10:35:00
5:55 AM,53.1,51.3,94,29.90,10.0,North,4.6,-,N/A,,Mostly Cloudy,350,2013-06-17 10:55:00
6:15 AM,52.7,51.6,96,29.89,10.0,Calm,Calm,-,N/A,,Scattered Clouds,0,2013-06-17 11:15:00
6:35 AM,53.6,52.0,94,29.89,10.0,Calm,Calm,-,N/A,,Scattered Clouds,0,2013-06-17 11:35:00
6:55 AM,55.6,53.2,92,29.89,10.0,Calm,Calm,-,N/A,,Clear,0,2013-06-17 11:55:00
7:15 AM,57.9,53.1,84,29.88,10.0,East,3.5,-,N/A,,Clear,100,2013-06-17 12:15:00
7:35 AM,59.4,53.4,81,29.88,10.0,Calm,Calm,-,N/A,,Clear,0,2013-06-17 12:35:00
7:55 AM,61.0,54.0,78,29.89,10.0,ESE,3.5,-,N/A,,Clear,120,2013-06-17 12:55:00
8:15 AM,61.7,54.3,77,29.89,10.0,ESE,3.5,-,N/A,,Clear,120,2013-06-17 13:15:00
8:35 AM,63.9,54.7,72,29.90,10.0,Calm,Calm,-,N/A,,Clear,0,2013-06-17 13:35:00
8:55 AM,64.4,54.7,71,29.91,10.0,Calm,Calm,-,N/A,,Clear,0,2013-06-17 13:55:00
9:15 AM,66.0,55.2,68,29.91,10.0,Calm,Calm,-,N/A,,Clear,0,2013-06-17 14:15:00
9:35 AM,67.3,55.9,67,29.92,10.0,Calm,Calm,-,N/A,,Clear,0,2013-06-17 14:35:00
9:55 AM,68.4,55.0,62,29.92,10.0,North,6.9,-,N/A,,Scattered Clouds,10,2013-06-17 14:55:00
10:15 AM,69.1,55.8,62,29.92,10.0,Calm,Calm,-,N/A,,Scattered Clouds,0,2013-06-17 15:15:00
10:35 AM,69.8,56.3,62,29.92,10.0,East,3.5,-,N/A,,Mostly Cloudy,80,2013-06-17 15:35:00
10:55 AM,70.0,56.3,62,29.93,10.0,Calm,Calm,-,N/A,,Scattered Clouds,0,2013-06-17 15:55:00
11:15 AM,70.7,56.5,61,29.92,10.0,SSE,3.5,-,N/A,,Clear,160,2013-06-17 16:15:00
11:35 AM,71.2,57.2,61,29.92,10.0,Calm,Calm,-,N/A,,Clear,0,2013-06-17 16:35:00
11:55 AM,71.8,57.2,60,29.93,10.0,Calm,Calm,-,N/A,,Mostly Cloudy,0,2013-06-17 16:55:00
12:35 PM,72.1,55.6,56,29.93,10.0,WNW,4.6,-,N/A,,Overcast,300,2013-06-17 17:35:00
1:15 PM,71.6,55.9,58,29.92,10.0,North,4.6,-,N/A,,Overcast,360,2013-06-17 18:15:00
1:35 PM,73.8,57.9,58,29.91,10.0,NNE,12.7,-,N/A,,Mostly Cloudy,30,2013-06-17 18:35:00
1:55 PM,68.2,57.4,68,29.91,10.0,NE,6.9,-,N/A,,Overcast,40,2013-06-17 18:55:00
2:15 PM,67.8,56.5,67,29.93,10.0,North,5.8,-,N/A,Thunderstorm,Thunderstorm,360,2013-06-17 19:15:00
2:55 PM,61.0,55.6,82,29.95,10.0,North,3.5,-,0.28,Thunderstorm,Mostly Cloudy,10,2013-06-17 19:55:00
3:15 PM,60.6,57.2,88,29.94,10.0,Calm,Calm,-,N/A,Rain,Light Rain,0,2013-06-17 20:15:00
3:55 PM,63.3,60.8,91,29.95,10.0,Calm,Calm,-,N/A,,Mostly Cloudy,0,2013-06-17 20:55:00
4:35 PM,64.4,61.9,92,29.93,10.0,SE,5.8,-,N/A,,Mostly Cloudy,130,2013-06-17 21:35:00
4:55 PM,67.6,62.1,82,29.95,10.0,SSW,5.8,-,N/A,,Scattered Clouds,200,2013-06-17 21:55:00
5:15 PM,66.7,58.3,74,29.95,10.0,Calm,Calm,-,N/A,,Clear,0,2013-06-17 22:15:00
5:35 PM,65.7,60.3,83,29.95,10.0,Calm,Calm,-,N/A,,Scattered Clouds,0,2013-06-17 22:35:00
5:55 PM,65.3,62.1,89,29.95,10.0,Calm,Calm,-,N/A,Rain,Light Rain,0,2013-06-17 22:55:00
6:15 PM,67.8,61.7,81,29.95,10.0,Calm,Calm,-,N/A,Rain,Light Rain,0,2013-06-17 23:15:00
6:35 PM,68.5,62.2,80,29.95,10.0,Calm,Calm,-,N/A,,Scattered Clouds,0,2013-06-17 23:35:00
6:55 PM,67.5,59.4,75,29.95,10.0,NE,6.9,-,N/A,,Scattered Clouds,50,2013-06-17 23:55:00
7:15 PM,66.9,58.8,75,29.95,10.0,East,8.1,-,N/A,,Scattered Clouds,80,2013-06-18 00:15:00
7:35 PM,65.5,59.4,81,29.97,10.0,Calm,Calm,-,N/A,,Scattered Clouds,0,2013-06-18 00:35:00
7:55 PM,64.8,59.2,82,29.97,10.0,ESE,8.1,-,N/A,,Scattered Clouds,110,2013-06-18 00:55:00
8:15 PM,63.0,59.2,87,29.97,10.0,ESE,5.8,-,N/A,,Mostly Cloudy,120,2013-06-18 01:15:00
8:35 PM,62.6,59.5,90,29.98,10.0,East,4.6,-,N/A,,Overcast,100,2013-06-18 01:35:00
8:55 PM,62.2,59.9,92,29.99,10.0,NE,3.5,-,N/A,Rain,Light Rain,40,2013-06-18 01:55:00
9:15 PM,62.4,58.8,88,30.00,10.0,Calm,Calm,-,N/A,,Overcast,0,2013-06-18 02:15:00
9:35 PM,62.4,58.6,87,30.01,10.0,NE,5.8,-,N/A,,Overcast,50,2013-06-18 02:35:00
9:55 PM,61.2,56.3,84,30.02,10.0,NE,9.2,-,N/A,,Overcast,50,2013-06-18 02:55:00
10:15 PM,60.3,55.4,84,30.03,10.0,NE,10.4,-,N/A,,Overcast,50,2013-06-18 03:15:00
10:35 PM,59.5,54.5,83,30.04,10.0,NE,10.4,-,N/A,,Overcast,50,2013-06-18 03:35:00
10:55 PM,58.6,53.8,84,30.04,10.0,NE,5.8,-,N/A,,Overcast,50,2013-06-18 03:55:00
11:15 PM,58.5,53.6,84,30.04,10.0,NE,4.6,-,N/A,,Overcast,50,2013-06-18 04:15:00
11:35 PM,58.1,52.7,82,30.05,10.0,ENE,6.9,-,N/A,,Overcast,60,2013-06-18 04:35:00
11:55 PM,57.7,52.2,82,30.05,10.0,NE,6.9,-,N/A,,Overcast,50,2013-06-18 04:55:00